Home > Weather > Bilbao > Past weeks

Flag for Spain Past Weather in Bilbao, Spain — Yesterday and Last 2 Weeks

Now
59 °F

Partly cloudy.


Feels Like: 59 °F
Forecast: 56 / 73 °F
Wind: 2 mph from North

Location: Bilbao / Sondica

Current Time: May 27, 2016 at 6:43:10 AM

Latest Report: May 27, 2016 at 6:00 AM


Visibility: 5 mi

Pressure: 29.95 "Hg

Humidity: 94%

Dew Point: 57 °F

Location of BilbaoLocation

Past Weather in Bilbao — Graph

°F

Bilbao Temperature Yesterday

Maximum temperature yesterday: 72 °F (at 1:00 PM)
Minimum temperature yesterday: 59 °F (at 5:00 AM)
Average temperature yesterday: 65 °F

High & Low Weather Summary for the Past Weeks

 TemperatureHumidityPressure
High84 °F (May 24, 5:30 PM)100% (May 15, 5:00 AM)30.30 "Hg (May 15, 5:00 AM)
Low46 °F (May 12, 5:00 AM)30% (May 24, 5:00 PM)29.65 "Hg (May 12, 5:00 AM)
Average61 °F78%30.04 "Hg
* Reported May 12 5:00 AM — May 27 5:30 AM, Bilbao, Weather by CustomWeather, © 2016

Note: Actual official high and low records may vary slightly from our data, if they occured in-between our weather recording intervals... More about our weather records

Advertising

Bilbao Weather History for the Previous 24 Hours

Scroll right to see more
 ConditionsComfort  
Time TempWeatherWind HumidityBarometerVisibility
5:30 AM
Fri, May 27
59 °FPartly cloudy.2 mph94%29.92 "Hg5 mi
5:00 AM59 °FPassing clouds.2 mph94%29.92 "Hg6 mi
12:00 AM61 °FPassing clouds.No wind88%29.95 "HgN/A
11:30 PM
Thu, May 26
63 °FPassing clouds.1 mph88%29.95 "HgN/A
11:00 PM61 °FPassing clouds.No wind88%29.95 "HgN/A
10:30 PM63 °FPassing clouds.1 mph88%29.95 "HgN/A
10:00 PM63 °FPassing clouds.3 mph88%29.92 "HgN/A
9:30 PM64 °FPassing clouds.3 mph78%29.92 "HgN/A
9:00 PM64 °FScattered clouds.3 mph83%29.92 "HgN/A
8:30 PM66 °FScattered clouds.5 mph73%29.92 "HgN/A
8:00 PM66 °FScattered clouds.3 mph73%29.92 "HgN/A
7:30 PM66 °FPassing clouds.5 mph73%29.92 "HgN/A
7:00 PM66 °FPassing clouds.7 mph73%29.89 "HgN/A
6:30 PM66 °FPassing clouds.9 mph73%29.89 "HgN/A
6:00 PM68 °FPassing clouds.10 mph69%29.89 "HgN/A
5:30 PM70 °FPassing clouds.10 mph64%29.89 "HgN/A
5:00 PM68 °FPassing clouds.10 mph64%29.89 "HgN/A
4:30 PM68 °FScattered clouds.12 mph64%29.89 "HgN/A
4:00 PM68 °FScattered clouds.14 mph69%29.89 "HgN/A
3:30 PM70 °FScattered clouds.10 mph69%29.89 "HgN/A
3:00 PM68 °FScattered clouds.9 mph73%29.89 "HgN/A
2:30 PM68 °FPassing clouds.13 mph69%29.86 "HgN/A
2:00 PM70 °FPassing clouds.12 mph69%29.86 "HgN/A
1:30 PM70 °FPassing clouds.9 mph73%29.86 "HgN/A
1:00 PM72 °FPassing clouds.3 mph65%29.86 "HgN/A
12:30 PM70 °FPassing clouds.1 mph60%29.86 "HgN/A
12:00 PM68 °FPassing clouds.1 mph64%29.86 "HgN/A
11:30 AM68 °FPassing clouds.No wind64%29.86 "HgN/A
11:00 AM66 °FPassing clouds.No wind68%29.89 "HgN/A
10:30 AM66 °FScattered clouds.No wind78%29.89 "HgN/A
10:00 AM64 °FScattered clouds.No wind78%29.89 "HgN/A
9:30 AM64 °FScattered clouds.No wind83%29.89 "HgN/A
9:00 AM61 °FScattered clouds.1 mph94%29.89 "HgN/A
8:30 AM61 °FBroken clouds.1 mph94%29.89 "HgN/A
8:00 AM59 °FBroken clouds.No wind94%29.89 "HgN/A
7:30 AM59 °FPassing clouds.No wind94%29.89 "HgN/A
7:00 AM59 °FPassing clouds.1 mph94%29.89 "HgN/A
6:30 AM59 °FPassing clouds.No wind94%29.89 "HgN/A
6:00 AM59 °FPassing clouds.No wind94%29.89 "HgN/A
Weather by CustomWeather, © 2016

See weather overviewHow to use our weather pages